Location: *
(51.4660°N, 0.3360°W)
Time: 14:23:36
(UTC+00:00)

NOSS 3-4 (A) - Pass Details

Date: 19 September 2019
Orbit: 910 x 1303 km, 63.4° (Epoch: 21 September)

Event Time Altitude Azimuth Distance (km) Brightness Sun altitude
Rises 19:02:46 0° 314° (NW) 3,795 7.7 -9.3°
Reaches altitude 10° 19:05:17 10° 313° (NW) 2,892 7.0 -9.7°
Maximum altitude 19:12:10 77° 230° (SW) 1,172 4.0 -10.8°
Drops below altitude 10° 19:19:44 10° 146° (SE) 3,164 5.7 -11.9°
Enters shadow 19:20:47 - 145° (SE) 3,526 5.9 -12.1°
